Saint George, UT

12:45 PM MST on December 10, 2016 (GMT -0700)
Saint George Municipal

Weather History for KSGU - September, 2014

Change the Weather History Date:

Wednesday, September 3, 2014

  Actual Average Record
Temperature  
Mean Temperature 84 °F -  
Max Temperature 98 °F 97 °F 107 °F (1950)
Min Temperature 69 °F 63 °F 47 °F (1961)
Cooling Degree Days 18    
Growing Degree Days 34 (Base 50)    
Moisture  
Dew Point 37 °F    
Average Humidity 20    
Maximum Humidity 33    
Minimum Humidity 11    
Precipitation  
Precipitation 0.00 in - - ()
Sea Level Pressure  
Sea Level Pressure 29.81 in    
Wind  
Wind Speed 4 mph (WNW)    
Max Wind Speed 13 mph    
Max Gust Speed 18 mph    
Visibility 10 miles    
Events      
Averages and records for this station are not official NWS values.
T = Trace of Precipitation, MM = Missing Value Source: NWS Daily Summary

Daily Weather History Graph

Daily Weather History Graph

Search for Another Location

Airport or City:

Trip Planner

Search our weather history database for the weather conditions in past years. The results will help you decide how hot, cold, wet, or windy it might be!

Date:

Astronomy

Sep. 03, 2014 Rise Set
Actual Time 7:06 AM MDT 7:59 PM MDT
Civil Twilight 6:40 AM MDT 8:26 PM MDT
Nautical Twilight 6:08 AM MDT 8:57 PM MDT
Astronomical Twilight 5:36 AM MDT 9:29 PM MDT
Moon 3:41 PM MDT (9/3) 1:08 AM MDT (9/3)
Length of Visible Light 13h 46m
Length of Day
12h 53m
Waxing Gibbous, 64% of the Moon is Illuminated
Sep 3
Waxing Gibbous
Sep 8
Full
Sep 15
Last Quarter
Sep 24
New
Oct 1
First Quarter

Hourly Weather History & Observations

Time (MDT) Temp. Dew Point Humidity Pressure Visibility Wind Dir Wind Speed Gust Speed Precip Events Conditions
12:15 AM 80.6 °F 35.6 °F 20% 29.83 in 10.0 mi NE 3.5 mph - N/A   Clear
12:35 AM 80.6 °F 37.4 °F 21% 29.83 in 10.0 mi NNW 3.5 mph - N/A   Clear
12:55 AM 78.8 °F 39.2 °F 24% 29.83 in 10.0 mi NW 4.6 mph - N/A   Clear
1:15 AM 78.8 °F 37.4 °F 23% 29.83 in 10.0 mi North 4.6 mph - N/A   Clear
1:35 AM 77.0 °F 37.4 °F 24% 29.83 in 10.0 mi Calm Calm - N/A   Clear
1:55 AM 78.8 °F 37.4 °F 23% 29.84 in 10.0 mi Calm Calm - N/A   Clear
2:15 AM 78.8 °F 35.6 °F 21% 29.83 in 10.0 mi ESE 5.8 mph - N/A   Clear
2:35 AM 77.0 °F 35.6 °F 22% 29.83 in 10.0 mi Calm Calm - N/A   Clear
2:55 AM 77.0 °F 37.4 °F 24% 29.83 in 10.0 mi NW 5.8 mph - N/A   Clear
3:15 AM 75.2 °F 37.4 °F 25% 29.84 in 10.0 mi NNE 4.6 mph - N/A   Clear
3:35 AM 75.2 °F 37.4 °F 25% 29.84 in 10.0 mi East 3.5 mph - N/A   Clear
3:55 AM 77.0 °F 37.4 °F 24% 29.84 in 10.0 mi North 4.6 mph - N/A   Clear
4:15 AM 75.2 °F 37.4 °F 25% 29.84 in 10.0 mi East 5.8 mph - N/A   Clear
4:35 AM 73.4 °F 37.4 °F 27% 29.85 in 10.0 mi East 5.8 mph - N/A   Clear
4:55 AM 73.4 °F 37.4 °F 27% 29.85 in 10.0 mi ESE 3.5 mph - N/A   Clear
5:15 AM 73.4 °F 37.4 °F 27% 29.84 in 10.0 mi SE 6.9 mph - N/A   Clear
5:35 AM 73.4 °F 37.4 °F 27% 29.85 in 10.0 mi SW 3.5 mph - N/A   Clear
5:55 AM 73.4 °F 37.4 °F 27% 29.85 in 10.0 mi Calm Calm - N/A   Clear
6:15 AM 73.4 °F 37.4 °F 27% 29.85 in 10.0 mi East 4.6 mph - N/A   Clear
6:35 AM 71.6 °F 37.4 °F 29% 29.85 in 10.0 mi Calm Calm - N/A   Clear
6:55 AM 71.6 °F 37.4 °F 29% 29.86 in 10.0 mi Calm Calm - N/A   Clear
7:15 AM 69.8 °F 39.2 °F 33% 29.87 in 10.0 mi SSE 3.5 mph - N/A   Clear
7:35 AM 71.6 °F 37.4 °F 29% 29.87 in 10.0 mi East 4.6 mph - N/A   Clear
7:55 AM 71.6 °F 37.4 °F 29% 29.88 in 10.0 mi Calm Calm - N/A   Clear
8:15 AM 71.6 °F 39.2 °F 31% 29.88 in 10.0 mi Calm Calm - N/A   Clear
8:35 AM 73.4 °F 39.2 °F 29% 29.88 in 10.0 mi Calm Calm - N/A   Clear
8:55 AM 73.4 °F 39.2 °F 29% 29.88 in 10.0 mi Calm Calm - N/A   Clear
9:15 AM 75.2 °F 39.2 °F 27% 29.88 in 10.0 mi Calm Calm - N/A   Clear
9:35 AM 77.0 °F 39.2 °F 26% 29.88 in 10.0 mi Calm Calm - N/A   Clear
9:55 AM 78.8 °F 39.2 °F 24% 29.87 in 10.0 mi Calm Calm - N/A   Clear
10:15 AM 80.6 °F 41.0 °F 24% 29.87 in 10.0 mi WNW 4.6 mph - N/A   Clear
10:35 AM 82.4 °F 42.8 °F 25% 29.88 in 10.0 mi West 4.6 mph - N/A   Clear
10:55 AM 82.4 °F 42.8 °F 25% 29.88 in 10.0 mi WNW 4.6 mph - N/A   Clear
11:15 AM 84.2 °F 42.8 °F 23% 29.87 in 10.0 mi NW 3.5 mph - N/A   Clear
11:35 AM 87.8 °F 42.8 °F 21% 29.87 in 10.0 mi WNW 3.5 mph - N/A   Clear
11:55 AM 87.8 °F 42.8 °F 21% 29.86 in 10.0 mi NW 3.5 mph - N/A   Clear
12:15 PM 89.6 °F 44.6 °F 21% 29.85 in 10.0 mi WNW 4.6 mph - N/A   Clear
12:35 PM 91.4 °F 42.8 °F 18% 29.84 in 10.0 mi Calm Calm - N/A   Clear
12:55 PM 93.2 °F 42.8 °F 17% 29.83 in 10.0 mi NNW 8.1 mph - N/A   Clear
1:15 PM 93.2 °F 42.8 °F 17% 29.82 in 10.0 mi WNW 5.8 mph - N/A   Clear
1:35 PM 95.0 °F 41.0 °F 15% 29.81 in 10.0 mi WNW 5.8 mph - N/A   Clear
1:55 PM 93.2 °F 39.2 °F 15% 29.80 in 10.0 mi Calm Calm - N/A   Clear
2:15 PM 95.0 °F 39.2 °F 14% 29.80 in 10.0 mi NNW 3.5 mph - N/A   Clear
2:35 PM 96.8 °F 39.2 °F 14% 29.79 in 10.0 mi West 9.2 mph - N/A   Clear
2:55 PM 96.8 °F 39.2 °F 14% 29.78 in 10.0 mi NW 5.8 mph - N/A   Clear
3:15 PM 98.6 °F 39.2 °F 13% 29.78 in 10.0 mi NE 3.5 mph - N/A   Clear
3:35 PM 98.6 °F 39.2 °F 13% 29.76 in 10.0 mi West 10.4 mph 18.4 mph N/A   Clear
3:55 PM 96.8 °F 39.2 °F 14% 29.75 in 10.0 mi West 10.4 mph 16.1 mph N/A   Clear
4:15 PM 98.6 °F 39.2 °F 13% 29.75 in 10.0 mi WSW 6.9 mph - N/A   Clear
4:35 PM 98.6 °F 39.2 °F 13% 29.74 in 10.0 mi NW 9.2 mph - N/A   Clear
4:55 PM 96.8 °F 39.2 °F 14% 29.74 in 10.0 mi NW 8.1 mph - N/A   Clear
5:15 PM 98.6 °F 37.4 °F 12% 29.73 in 10.0 mi NNW 3.5 mph - N/A   Clear
5:35 PM 98.6 °F 37.4 °F 12% 29.73 in 10.0 mi NW 5.8 mph - N/A   Clear
5:55 PM 98.6 °F 37.4 °F 12% 29.73 in 10.0 mi West 11.5 mph - N/A   Clear
6:15 PM 98.6 °F 35.6 °F 11% 29.72 in 10.0 mi West 9.2 mph - N/A   Clear
6:35 PM 96.8 °F 35.6 °F 12% 29.72 in 10.0 mi West 9.2 mph - N/A   Clear
6:55 PM 96.8 °F 35.6 °F 12% 29.72 in 10.0 mi West 12.7 mph - N/A   Clear
7:15 PM 96.8 °F 35.6 °F 12% 29.72 in 10.0 mi West 12.7 mph - N/A   Clear
7:35 PM 96.8 °F 33.8 °F 11% 29.72 in 10.0 mi West 9.2 mph - N/A   Clear
7:55 PM 93.2 °F 33.8 °F 12% 29.72 in 10.0 mi West 9.2 mph - N/A   Clear
8:15 PM 93.2 °F 32.0 °F 11% 29.72 in 10.0 mi WSW 8.1 mph - N/A   Clear
8:35 PM 91.4 °F 32.0 °F 12% 29.73 in 10.0 mi West 6.9 mph - N/A   Clear
8:55 PM 89.6 °F 32.0 °F 13% 29.73 in 10.0 mi West 6.9 mph - N/A   Clear
9:15 PM 87.8 °F 30.2 °F 13% 29.74 in 10.0 mi SSW 4.6 mph - N/A   Clear
9:55 PM 84.2 °F 30.2 °F 14% 29.76 in 10.0 mi Calm Calm - N/A   Clear
10:15 PM 82.4 °F 30.2 °F 15% 29.76 in 10.0 mi SE 4.6 mph - N/A   Clear
10:35 PM 82.4 °F 30.2 °F 15% 29.77 in 10.0 mi ESE 4.6 mph - N/A   Clear
10:55 PM 84.2 °F 30.2 °F 14% 29.77 in 10.0 mi ESE 6.9 mph - N/A   Clear
11:15 PM 82.4 °F 28.4 °F 14% 29.77 in 10.0 mi SSE 3.5 mph - N/A   Clear
11:35 PM 84.2 °F 28.4 °F 13% 29.77 in 10.0 mi Calm Calm - N/A   Clear
11:55 PM 82.4 °F 26.6 °F 13% 29.77 in 10.0 mi SE 4.6 mph - N/A   Clear